This demonstration page uses our WeatherBlox Daily Observations layout. Learn more.

Left ArrowRight Arrow

34.02893, -84.19858

Hourly Observations for August 8, 2015

Temp ( °F °C ) Dew Point ( °F °C ) Humidity (%) Winds ( mph kmh ) Pressure ( in mb ) Visibility ( mi km ) Precip ( " mm )
12:53 am 00:53 Clear 76 24.4 68 20 77 77 NNW 3 6 29.83 1010 10 16 0.00 0.00
1:53 am 01:53 Clear 75 23.9 68 20 79 79 NNW 6 9 29.81 1010 10 16 0.00 0.00
2:53 am 02:53 Clear 73 22.8 68 20 84 84 NW 6 9 29.81 1010 10 16 0.00 0.00
3:53 am 03:53 Clear 73 22.8 68 20 84 84 NNW 5 7 29.82 1010 10 16 0.00 0.00
4:53 am 04:53 Clear 71 21.7 68 20 90 90 Calm 29.83 1010 10 16 0.00 0.00
5:53 am 05:53 Clear 70 21.1 68 20 93 93 Calm 29.84 1011 10 16 0.00 0.00
6:53 am 06:53 Clear 69 20.6 68 20 96 96 NNE 5 7 29.85 1011 10 16 0.00 0.00
7:53 am 07:53 Sunny 73 22.8 70 21.1 90 90 Calm 29.88 1012 10 16 0.00 0.00
8:53 am 08:53 Sunny 77 25 70 21.1 79 79 VRB 6 9 29.91 1013 10 16 0.00 0.00
9:53 am 09:53 Sunny 79 26.1 71 21.7 77 77 Calm 29.91 1013 10 16 0.00 0.00
10:53 am 10:53 Mostly Sunny 80 26.7 71 21.7 74 74 ESE 5 7 29.91 1013 10 16 0.00 0.00
11:33 am 11:33 Mostly Cloudy 81 27.2 71 21.7 72 72 ENE 5 7 29.91 1013 10 16 0.00 0.00
11:53 am 11:53 Partly Cloudy 85 29.4 71 21.7 63 63 VRB 7 11 29.89 1012 10 16 0.00 0.00
12:53 pm 12:53 Mostly Cloudy 84 28.9 70 21.1 63 63 VRB 5 7 29.88 1012 10 16 0.00 0.00
1:53 pm 13:53 Mostly Cloudy 90 32.2 69 20.6 50 50 NNE 3 6 29.87 1012 10 16 0.00 0.00
2:53 pm 14:53 Mostly Sunny 88 31.1 69 20.6 54 54 VRB 7 11 29.87 1012 10 16 0.00 0.00
3:53 pm 15:53 Partly Cloudy 90 32.2 68 20 48 48 VRB 3 6 29.87 1012 10 16 0.00 0.00
4:53 pm 16:53 Cloudy 90 32.2 68 20 48 48 VRB 3 6 29.86 1011 10 16 0.00 0.00
5:53 pm 17:53 Sunny 92 33.3 66 18.9 43 43 NNE 6 9 29.85 1011 10 16 0.00 0.00
6:53 pm 18:53 Sunny 90 32.2 68 20 48 48 Calm 29.85 1011 10 16 0.00 0.00
7:53 pm 19:53 Sunny 86 30 69 20.6 57 57 SE 5 7 29.86 1011 10 16 0.00 0.00
8:53 pm 20:53 Clear 83 28.3 70 21.1 65 65 Calm 29.89 1012 10 16 0.00 0.00
9:53 pm 21:53 Clear 80 26.7 70 21.1 71 71 Calm 29.91 1013 10 16 0.00 0.00
10:53 pm 22:53 Clear 78 25.6 70 21.1 76 76 Calm 29.93 1014 10 16 0.00 0.00
11:53 pm 23:53 Clear 77 25 71 21.7 82 82 Calm 29.92 1013 10 16 0.00 0.00

Powered by AerisWeather